User: anonymous   Login
Location: Unspecified
(0.0000°N, 0.0000°E)
Time: 21:54:44
(UTC+00:00)
Language:

ZHUHAI-1 OVS-02 - Orbit

View from above orbital plane
View from above orbital plane
View from above satellite
View from above satellite

Ground track
Ground track

The orbit data is extracted from the following two-line orbital elements,

1 43440U 18040B   19047.53567341  .00000802  00000-0  42431-4 0  9991
2 43440  97.3762 128.5662 0011272   4.0562  46.8830 15.18183039 44962
Epoch (UTC): 16 February 2019 12:51:22
Eccentricity: 0.0011272
inclination: 97.3762°
perigee height: 503 km
apogee height: 519 km
right ascension of ascending node: 128.5662°
argument of perigee: 4.0562°
revolutions per day: 15.18183039
mean anomaly at epoch: 46.8830°
orbit number at epoch: 4496

The dashed part of the orbit path shows where the satellite is in the earth's shadow,  

DLR